| time (UTC) | temp C | wind direction | speed KPH | gust KPH | rain 1hr cm | rain 24hr cm | rain mn cm | humidity % | barometer mb |
| 20260504014504 | 12 | 0 | 0.0 | 0.0 | 0.00 | 0.00 | 0.00 | 47 | 1012.3 |
| 20260504014004 | 12 | 0 | 0.0 | 0.0 | 0.00 | 0.00 | 0.00 | 47 | 1012.3 |
| 20260504013504 | 12 | 0 | 0.0 | 0.0 | 0.00 | 0.00 | 0.00 | 46 | 1012.3 |
| 20260504013004 | 12 | 0 | 0.0 | 0.0 | 0.00 | 0.00 | 0.00 | 46 | 1012.4 |
| 20260504012503 | 12 | 0 | 0.0 | 0.0 | 0.00 | 0.00 | 0.00 | 45 | 1012.3 |
| 20260504012003 | 12 | 262 | 0.0 | 1.6 | 0.00 | 0.00 | 0.00 | 45 | 1012.2 |
| 20260504011503 | 12 | 262 | 0.0 | 1.6 | 0.00 | 0.00 | 0.00 | 45 | 1012.2 |
| 20260504011003 | 12 | 0 | 0.0 | 0.0 | 0.00 | 0.00 | 0.00 | 44 | 1012.3 |
| 20260504010504 | 12 | 0 | 0.0 | 0.0 | 0.00 | 0.00 | 0.00 | 44 | 1012.3 |
| 20260504010004 | 13 | 246 | 0.0 | 1.6 | 0.00 | 0.00 | 0.00 | 44 | 1012.2 |
| 20260504005504 | 13 | 246 | 0.0 | 1.6 | 0.00 | 0.00 | 0.00 | 44 | 1012.2 |
| 20260504005003 | 13 | 0 | 0.0 | 0.0 | 0.00 | 0.00 | 0.00 | 43 | 1012.3 |
| 20260504004503 | 13 | 0 | 0.0 | 0.0 | 0.00 | 0.00 | 0.00 | 43 | 1012.2 |
| 20260504003503 | 13 | 0 | 0.0 | 0.0 | 0.00 | 0.00 | 0.00 | 42 | 1012.2 |
| 20260504003004 | 13 | 0 | 0.0 | 0.0 | 0.00 | 0.00 | 0.00 | 42 | 1012.3 |
| 20260504002504 | 13 | 266 | 0.0 | 1.6 | 0.00 | 0.00 | 0.00 | 42 | 1012.2 |
| 20260504001504 | 13 | 262 | 0.0 | 4.8 | 0.00 | 0.00 | 0.00 | 42 | 1012.1 |
| 20260504001003 | 13 | 274 | 0.0 | 4.8 | 0.00 | 0.00 | 0.00 | 41 | 1012.2 |
| 20260504000003 | 14 | 262 | 0.0 | 12.9 | 0.00 | 0.00 | 0.00 | 41 | 1012.1 |
| 20260503235003 | 14 | 273 | 0.0 | 12.9 | 0.00 | 0.00 | 0.00 | 40 | 1012.4 |
| 20260503234504 | 14 | 270 | 0.0 | 12.9 | 0.00 | 0.00 | 0.00 | 40 | 1012.3 |
| 20260503234004 | 14 | 252 | 0.0 | 6.4 | 0.00 | 0.00 | 0.00 | 40 | 1012.4 |
| 20260503233503 | 14 | 268 | 0.0 | 8.0 | 0.00 | 0.00 | 0.00 | 40 | 1012.2 |
| 20260503233003 | 14 | 270 | 0.0 | 8.0 | 0.00 | 0.00 | 0.00 | 40 | 1012.2 |
| 20260503232503 | 14 | 277 | 0.0 | 9.7 | 0.00 | 0.00 | 0.00 | 39 | 1012.2 |
| 20260503232004 | 14 | 276 | 0.0 | 9.7 | 0.00 | 0.00 | 0.00 | 39 | 1012.2 |
| 20260503231504 | 14 | 249 | 0.0 | 4.8 | 0.00 | 0.00 | 0.00 | 39 | 1012.2 |
| 20260503231003 | 14 | 249 | 0.0 | 4.8 | 0.00 | 0.00 | 0.00 | 38 | 1012.3 |
| 20260503230503 | 14 | 258 | 0.0 | 8.0 | 0.00 | 0.00 | 0.00 | 38 | 1012.4 |
| 20260503230003 | 15 | 240 | 0.0 | 8.0 | 0.00 | 0.00 | 0.00 | 38 | 1012.4 |
| 20260503225003 | 15 | 265 | 0.0 | 22.5 | 0.00 | 0.00 | 0.00 | 38 | 1012.4 |
| 20260503224504 | 15 | 265 | 0.0 | 22.5 | 0.00 | 0.00 | 0.00 | 38 | 1012.5 |
| 20260503224004 | 15 | 293 | 0.0 | 1.6 | 0.00 | 0.00 | 0.00 | 38 | 1012.4 |
| 20260503223504 | 15 | 284 | 0.0 | 1.6 | 0.00 | 0.00 | 0.00 | 37 | 1012.4 |
| 20260503223003 | 15 | 254 | 0.0 | 8.0 | 0.00 | 0.00 | 0.00 | 38 | 1012.4 |
| 20260503222503 | 15 | 237 | 0.0 | 8.0 | 0.00 | 0.00 | 0.00 | 38 | 1012.4 |
| 20260503221503 | 15 | 109 | 0.0 | 1.6 | 0.00 | 0.00 | 0.00 | 38 | 1012.5 |
| 20260503220504 | 15 | 241 | 0.0 | 11.3 | 0.00 | 0.00 | 0.00 | 37 | 1012.5 |
| 20260503220004 | 15 | 294 | 0.0 | 9.7 | 0.00 | 0.00 | 0.00 | 37 | 1012.5 |
| 20260503215504 | 15 | 262 | 0.0 | 1.6 | 0.00 | 0.00 | 0.00 | 36 | 1012.4 |
| 20260503214503 | 15 | 178 | 1.6 | 25.7 | 0.00 | 0.00 | 0.00 | 37 | 1012.4 |
| 20260503214004 | 15 | 143 | 0.0 | 25.7 | 0.00 | 0.00 | 0.00 | 36 | 1012.5 |
| 20260503213504 | 15 | 263 | 0.0 | 16.1 | 0.00 | 0.00 | 0.00 | 36 | 1012.4 |
| 20260503212504 | 15 | 275 | 1.6 | 19.3 | 0.00 | 0.00 | 0.00 | 35 | 1012.1 |
| 20260503211504 | 15 | 254 | 0.0 | 19.3 | 0.00 | 0.00 | 0.00 | 35 | 1012.3 |
| 20260503211004 | 15 | 229 | 0.0 | 19.3 | 0.00 | 0.00 | 0.00 | 34 | 1012.2 |
| 20260503210003 | 15 | 170 | 0.0 | 1.6 | 0.00 | 0.00 | 0.00 | 34 | 1012.3 |
| 20260503205004 | 15 | 265 | 0.0 | 3.2 | 0.00 | 0.00 | 0.00 | 34 | 1012.3 |
| 20260503204503 | 15 | 227 | 0.0 | 1.6 | 0.00 | 0.00 | 0.00 | 33 | 1012.3 |
| 20260503203004 | 15 | 267 | 0.0 | 14.5 | 0.00 | 0.00 | 0.00 | 33 | 1012.4 |
| 20260503202503 | 15 | 270 | 0.0 | 19.3 | 0.00 | 0.00 | 0.00 | 35 | 1012.5 |
| 20260503202003 | 15 | 272 | 0.0 | 19.3 | 0.00 | 0.00 | 0.00 | 34 | 1012.6 |
| 20260503201503 | 15 | 282 | 0.0 | 6.4 | 0.00 | 0.00 | 0.00 | 33 | 1012.6 |
| 20260503201004 | 15 | 295 | 0.0 | 19.3 | 0.00 | 0.00 | 0.00 | 35 | 1012.7 |
| 20260503200503 | 15 | 292 | 0.0 | 19.3 | 0.00 | 0.00 | 0.00 | 34 | 1012.8 |
| 20260503195504 | 15 | 275 | 0.0 | 4.8 | 0.00 | 0.00 | 0.00 | 34 | 1012.8 |
| 20260503195004 | 15 | 268 | 0.0 | 3.2 | 0.00 | 0.00 | 0.00 | 35 | 1013.0 |
| 20260503194503 | 15 | 234 | 0.0 | 3.2 | 0.00 | 0.00 | 0.00 | 35 | 1013.1 |
| 20260503194003 | 15 | 264 | 0.0 | 6.4 | 0.00 | 0.00 | 0.00 | 36 | 1013.2 |
| 20260503193503 | 15 | 270 | 0.0 | 6.4 | 0.00 | 0.00 | 0.00 | 36 | 1013.3 |
| 20260503193004 | 15 | 0 | 0.0 | 0.0 | 0.00 | 0.00 | 0.00 | 35 | 1013.2 |
| 20260503192503 | 15 | 271 | 0.0 | 17.7 | 0.00 | 0.00 | 0.00 | 35 | 1013.4 |
| 20260503192004 | 15 | 271 | 1.6 | 20.9 | 0.00 | 0.00 | 0.00 | 38 | 1013.5 |
| 20260503191503 | 14 | 270 | 1.6 | 32.2 | 0.00 | 0.00 | 0.00 | 36 | 1013.6 |
| 20260503191004 | 15 | 270 | 3.2 | 32.2 | 0.00 | 0.00 | 0.00 | 37 | 1013.8 |
| 20260503190504 | 14 | 265 | 3.2 | 27.4 | 0.00 | 0.00 | 0.00 | 37 | 1013.9 |
| 20260503190003 | 14 | 261 | 1.6 | 24.1 | 0.00 | 0.00 | 0.00 | 36 | 1013.8 |
| 20260503185504 | 14 | 264 | 0.0 | 20.9 | 0.00 | 0.00 | 0.00 | 36 | 1013.9 |
| 20260503185004 | 14 | 274 | 0.0 | 27.4 | 0.00 | 0.00 | 0.00 | 37 | 1013.9 |
| 20260503184503 | 14 | 271 | 0.0 | 27.4 | 0.00 | 0.00 | 0.00 | 36 | 1014.1 |
| 20260503184003 | 14 | 214 | 0.0 | 3.2 | 0.00 | 0.00 | 0.00 | 37 | 1014.0 |
| 20260503183503 | 14 | 256 | 0.0 | 12.9 | 0.00 | 0.00 | 0.00 | 38 | 1014.1 |
| 20260503182503 | 14 | 238 | 0.0 | 14.5 | 0.00 | 0.00 | 0.00 | 40 | 1014.2 |
| 20260503182005 | 14 | 210 | 0.0 | 4.8 | 0.00 | 0.00 | 0.00 | 40 | 1014.2 |
| 20260503181504 | 14 | 245 | 0.0 | 9.7 | 0.00 | 0.00 | 0.00 | 40 | 1014.3 |
| 20260503181004 | 13 | 272 | 1.6 | 29.0 | 0.00 | 0.00 | 0.00 | 40 | 1014.4 |
| 20260503180503 | 13 | 269 | 3.2 | 30.6 | 0.00 | 0.00 | 0.00 | 39 | 1014.3 |
| 20260503180004 | 13 | 261 | 1.6 | 30.6 | 0.00 | 0.00 | 0.00 | 39 | 1014.3 |
| 20260503175504 | 13 | 232 | 0.0 | 8.0 | 0.00 | 0.00 | 0.00 | 40 | 1014.5 |
| 20260503175003 | 13 | 278 | 0.0 | 16.1 | 0.00 | 0.00 | 0.00 | 39 | 1014.6 |
| 20260503174504 | 13 | 283 | 0.0 | 16.1 | 0.00 | 0.00 | 0.00 | 39 | 1014.7 |
| 20260503174004 | 13 | 242 | 0.0 | 6.4 | 0.00 | 0.00 | 0.00 | 40 | 1014.6 |
| 20260503173504 | 13 | 243 | 0.0 | 6.4 | 0.00 | 0.00 | 0.00 | 40 | 1014.8 |
| 20260503173003 | 13 | 252 | 0.0 | 1.6 | 0.00 | 0.00 | 0.00 | 41 | 1014.9 |
| 20260503172504 | 13 | 279 | 0.0 | 14.5 | 0.00 | 0.00 | 0.00 | 40 | 1014.9 |
| 20260503172003 | 12 | 280 | 0.0 | 14.5 | 0.00 | 0.00 | 0.00 | 41 | 1014.9 |
| 20260503171503 | 12 | 271 | 0.0 | 12.9 | 0.00 | 0.00 | 0.00 | 41 | 1014.9 |
| 20260503171003 | 12 | 272 | 0.0 | 24.1 | 0.00 | 0.00 | 0.00 | 41 | 1015.0 |
| 20260503131004 | 7 | 0 | 0.0 | 0.0 | 0.00 | 0.03 | 0.00 | 59 | 1016.9 |
| 20260503130504 | 7 | 266 | 0.0 | 1.6 | 0.00 | 0.03 | 0.00 | 60 | 1016.8 |
| 20260503110503 | 0 | 0 | 0.0 | 0.0 | 0.00 | 0.18 | 0.00 | 90 | 1016.0 |
| 20260503081504 | 1 | 0 | 0.0 | 0.0 | 0.00 | 0.28 | 0.00 | 89 | 1015.6 |
| 20260503081004 | 1 | 0 | 0.0 | 0.0 | 0.00 | 0.28 | 0.00 | 89 | 1015.5 |
| 20260503080504 | 1 | 0 | 0.0 | 0.0 | 0.00 | 0.28 | 0.00 | 89 | 1015.6 |
| 20260503072504 | 1 | 0 | 0.0 | 0.0 | 0.00 | 0.28 | 0.00 | 87 | 1015.6 |
| 20260503072004 | 1 | 0 | 0.0 | 0.0 | 0.00 | 0.28 | 0.00 | 86 | 1015.6 |
| 20260503071503 | 1 | 0 | 0.0 | 0.0 | 0.00 | 0.28 | 0.00 | 85 | 1015.5 |
| 20260503071003 | 1 | 0 | 0.0 | 0.0 | 0.00 | 0.28 | 0.00 | 85 | 1015.5 |
| 20260503055004 | 3 | 0 | 0.0 | 0.0 | 0.00 | 0.28 | 0.00 | 74 | 1016.0 |
| 20260503054504 | 3 | 0 | 0.0 | 0.0 | 0.00 | 0.28 | 0.00 | 74 | 1016.0 |
| 20260503053504 | 3 | 0 | 0.0 | 0.0 | 0.00 | 0.28 | 0.00 | 73 | 1015.8 |
| 20260503053004 | 3 | 0 | 0.0 | 0.0 | 0.00 | 0.28 | 0.00 | 72 | 1016.0 |
| 20260503052504 | 3 | 0 | 0.0 | 0.0 | 0.00 | 0.28 | 0.00 | 72 | 1015.9 |
| 20260503052004 | 3 | 0 | 0.0 | 0.0 | 0.00 | 0.28 | 0.00 | 72 | 1015.8 |
| 20260503051504 | 3 | 0 | 0.0 | 0.0 | 0.00 | 0.28 | 0.00 | 72 | 1015.9 |
| 20260503050503 | 3 | 0 | 0.0 | 0.0 | 0.00 | 0.28 | 0.00 | 72 | 1015.9 |
| 20260503045503 | 4 | 0 | 0.0 | 0.0 | 0.00 | 0.28 | 0.00 | 71 | 1016.1 |
| 20260503045003 | 4 | 0 | 0.0 | 0.0 | 0.00 | 0.28 | 0.00 | 71 | 1016.1 |
| 20260503044504 | 4 | 0 | 0.0 | 0.0 | 0.00 | 0.28 | 0.00 | 71 | 1016.1 |
| 20260503044004 | 4 | 0 | 0.0 | 0.0 | 0.00 | 0.28 | 0.00 | 71 | 1016.1 |
| 20260503043504 | 4 | 0 | 0.0 | 0.0 | 0.00 | 0.28 | 0.00 | 71 | 1016.2 |
| 20260503043003 | 4 | 0 | 0.0 | 0.0 | 0.00 | 0.28 | 0.00 | 71 | 1016.1 |
| 20260503042503 | 4 | 0 | 0.0 | 0.0 | 0.00 | 0.28 | 0.00 | 71 | 1016.0 |
| 20260503042003 | 4 | 0 | 0.0 | 0.0 | 0.00 | 0.28 | 0.00 | 71 | 1016.0 |
| 20260503041503 | 4 | 0 | 0.0 | 0.0 | 0.00 | 0.28 | 0.00 | 70 | 1016.2 |
| 20260503041003 | 4 | 0 | 0.0 | 0.0 | 0.00 | 0.28 | 0.00 | 70 | 1016.2 |
| 20260503040503 | 4 | 0 | 0.0 | 0.0 | 0.00 | 0.28 | 0.00 | 70 | 1016.2 |
| 20260503040005 | 4 | 0 | 0.0 | 0.0 | 0.00 | 0.28 | 0.00 | 71 | 1016.4 |
| 20260503035503 | 4 | 0 | 0.0 | 0.0 | 0.00 | 0.28 | 0.28 | 71 | 1016.4 |
| 20260503035003 | 4 | 0 | 0.0 | 0.0 | 0.00 | 0.28 | 0.28 | 71 | 1016.4 |
| 20260503034503 | 4 | 0 | 0.0 | 0.0 | 0.00 | 0.28 | 0.28 | 71 | 1016.4 |
| 20260503034003 | 4 | 0 | 0.0 | 0.0 | 0.00 | 0.28 | 0.28 | 71 | 1016.3 |
| 20260503033503 | 4 | 0 | 0.0 | 0.0 | 0.00 | 0.28 | 0.28 | 71 | 1016.4 |
| 20260503033004 | 4 | 0 | 0.0 | 0.0 | 0.00 | 0.28 | 0.28 | 71 | 1016.4 |
| 20260503032504 | 4 | 0 | 0.0 | 0.0 | 0.00 | 0.28 | 0.28 | 70 | 1016.4 |
| 20260503032004 | 4 | 0 | 0.0 | 0.0 | 0.00 | 0.28 | 0.28 | 70 | 1016.4 |
| 20260503031504 | 4 | 0 | 0.0 | 0.0 | 0.00 | 0.28 | 0.28 | 70 | 1016.4 |
| 20260503031003 | 4 | 0 | 0.0 | 0.0 | 0.00 | 0.28 | 0.28 | 70 | 1016.4 |
| 20260503030503 | 4 | 0 | 0.0 | 0.0 | 0.00 | 0.28 | 0.28 | 71 | 1016.4 |
| 20260503030003 | 4 | 0 | 0.0 | 0.0 | 0.00 | 0.28 | 0.28 | 71 | 1016.4 |
| 20260503025503 | 4 | 0 | 0.0 | 0.0 | 0.00 | 0.28 | 0.28 | 71 | 1016.3 |
| 20260503025003 | 4 | 0 | 0.0 | 0.0 | 0.00 | 0.28 | 0.28 | 71 | 1016.5 |
| 20260503024503 | 4 | 0 | 0.0 | 0.0 | 0.00 | 0.28 | 0.28 | 71 | 1016.5 |
| 20260503024003 | 4 | 0 | 0.0 | 0.0 | 0.00 | 0.28 | 0.28 | 70 | 1016.6 |
| 20260503023504 | 4 | 0 | 0.0 | 0.0 | 0.00 | 0.28 | 0.28 | 69 | 1016.6 |
| 20260503022504 | 5 | 0 | 0.0 | 0.0 | 0.00 | 0.28 | 0.28 | 67 | 1016.8 |
| 20260503022003 | 5 | 0 | 0.0 | 0.0 | 0.00 | 0.28 | 0.28 | 67 | 1016.7 |
| 20260503021503 | 5 | 0 | 0.0 | 0.0 | 0.00 | 0.28 | 0.28 | 66 | 1016.6 |
| 20260503021003 | 5 | 0 | 0.0 | 0.0 | 0.00 | 0.28 | 0.28 | 66 | 1016.7 |
| 20260503020503 | 5 | 0 | 0.0 | 0.0 | 0.00 | 0.28 | 0.28 | 66 | 1016.7 |
| 20260503020003 | 5 | 0 | 0.0 | 0.0 | 0.00 | 0.28 | 0.28 | 65 | 1016.7 |
| 20260503015503 | 5 | 0 | 0.0 | 0.0 | 0.00 | 0.28 | 0.28 | 65 | 1016.6 |
| 20260503015004 | 5 | 0 | 0.0 | 0.0 | 0.00 | 0.28 | 0.28 | 64 | 1016.6 |